Japanese version Home page |
Updated on June 11, 2016 |
Profile |
Orbital ElementsEpoch 2015 June 27.0 TT = JDT 2457200.5 T 2015 June 14.84633 TT MPCW q 2.1350127 (2000.0) P Q n 0.13439588 Peri. 11.95804 +0.81163530 -0.56803915 a 3.7746679 Node 24.25621 +0.50489040 +0.56476311 e 0.4343840 Incl. 19.37776 +0.29382617 +0.59864360 P 7.33 From 225 observations 2000 Sept. 24-2008 Feb. 23, mean residual 0".6.
|
Magnitudes Graphm1 = 12.5 + 5 log d + 15.0 log r
|
The orbital elements are published on M.P.E.C. 2015-E14.
|